When you browse on this site, cookies collect data to enhance your experience and personalize the content and advertising you see.
Visit our Privacy Policy to learn more. By continuing to use the site, you agree to this use of cookies and data.
  • In Portugal
  • List of Countries
  • For 7 days
  • Water Temperature
  • Satellite Maps
  • Weather Map
  • Weather Widgets
  • user-avatar
    Login

    Hourly Weather Jewłach

    Today, 20 July, Saturday

    Time Temperature Precipitation Wind Pressure Humidity
    00:00 +30°C° 0 mm 5 mps 759 mmHg 44%
    01:00 +29°C° 0 mm 4 mps 759 mmHg 46%
    02:00 +29°C° 0 mm 2 mps 759 mmHg 47%
    03:00 +28°C° 0 mm 1 mps 759 mmHg 49%
    04:00 +29°C° 0 mm 1 mps 759 mmHg 49%
    05:00 +29°C° 0 mm 1 mps 760 mmHg 48%
    06:00 +29°C° 0 mm 1 mps 760 mmHg 48%
    07:00 +31°C° 0 mm 1 mps 760 mmHg 45%
    08:00 +32°C° 0 mm 1 mps 760 mmHg 42%
    09:00 +34°C° 0 mm 1 mps 760 mmHg 39%
    10:00 +36°C° 0 mm 2 mps 760 mmHg 35%
    11:00 +38°C° 0 mm 3 mps 760 mmHg 31%
    12:00 +41°C° 0 mm 4 mps 760 mmHg 27%
    13:00 +41°C° 0 mm 4 mps 759 mmHg 25%
    14:00 +42°C° 0 mm 5 mps 759 mmHg 24%
    15:00 +43°C° 0 mm 5 mps 759 mmHg 22%
    16:00 +42°C° 0 mm 5 mps 759 mmHg 23%
    17:00 +42°C° 0 mm 6 mps 759 mmHg 23%
    18:00 +41°C° 0 mm 6 mps 759 mmHg 23%
    19:00 +39°C° 0 mm 6 mps 760 mmHg 27%
    20:00 +36°C° 0 mm 7 mps 760 mmHg 30%
    21:00 +34°C° 0 mm 7 mps 760 mmHg 33%
    22:00 +33°C° 0 mm 6 mps 761 mmHg 34%
    23:00 +33°C° 0 mm 5 mps 761 mmHg 35%

    Tomorrow, 21 July, Sunday

    Time Temperature Precipitation Wind Pressure Humidity
    00:00 +32°C° 0 mm 4 mps 761 mmHg 36%
    01:00 +30°C° 0 mm 4 mps 761 mmHg 37%
    02:00 +30°C° 0 mm 4 mps 761 mmHg 38%
    03:00 +29°C° 0 mm 4 mps 760 mmHg 39%
    04:00 +30°C° 0 mm 4 mps 761 mmHg 39%
    05:00 +30°C° 0 mm 4 mps 761 mmHg 39%
    06:00 +30°C° 0 mm 4 mps 761 mmHg 38%
    07:00 +33°C° 0 mm 5 mps 761 mmHg 34%
    08:00 +35°C° 0 mm 5 mps 760 mmHg 30%
    09:00 +38°C° 0 mm 6 mps 760 mmHg 26%
    10:00 +40°C° 0 mm 6 mps 760 mmHg 25%
    11:00 +41°C° 0 mm 6 mps 759 mmHg 23%
    12:00 +43°C° 0 mm 7 mps 759 mmHg 21%
    13:00 +44°C° 0 mm 6 mps 758 mmHg 20%
    14:00 +45°C° 0 mm 6 mps 757 mmHg 20%
    15:00 +45°C° 0 mm 6 mps 757 mmHg 19%
    16:00 +45°C° 0 mm 6 mps 757 mmHg 19%
    17:00 +44°C° 0 mm 6 mps 757 mmHg 20%
    18:00 +44°C° 0 mm 6 mps 757 mmHg 21%
    19:00 +40°C° 0 mm 6 mps 757 mmHg 25%
    20:00 +38°C° 0 mm 6 mps 757 mmHg 30%
    21:00 +35°C° 0 mm 5 mps 758 mmHg 35%
    22:00 +33°C° 0 mm 5 mps 758 mmHg 40%
    23:00 +32°C° 0 mm 4 mps 758 mmHg 46%

    Day after tomorrow, 22 July, Monday

    Time Temperature Precipitation Wind Pressure Humidity
    00:00 +30°C° 0 mm 4 mps 758 mmHg 51%
    01:00 +29°C° 0 mm 3 mps 757 mmHg 54%
    02:00 +28°C° 0 mm 2 mps 757 mmHg 58%
    03:00 +28°C° 0 mm 2 mps 757 mmHg 61%
    04:00 +28°C° 0 mm 1 mps 757 mmHg 60%
    05:00 +29°C° 0 mm 1 mps 757 mmHg 59%
    06:00 +29°C° 0 mm 1 mps 757 mmHg 58%
    07:00 +31°C° 0 mm 1 mps 757 mmHg 51%
    08:00 +33°C° 0 mm 1 mps 757 mmHg 45%
    09:00 +36°C° 0 mm 2 mps 756 mmHg 39%
    10:00 +37°C° 0 mm 3 mps 756 mmHg 35%
    11:00 +40°C° 0 mm 4 mps 756 mmHg 31%
    12:00 +42°C° 0 mm 4 mps 756 mmHg 26%
    13:00 +43°C° 0 mm 5 mps 756 mmHg 25%
    14:00 +43°C° 0 mm 5 mps 755 mmHg 23%
    15:00 +45°C° 0 mm 6 mps 755 mmHg 21%
    16:00 +44°C° 0 mm 7 mps 755 mmHg 23%
    17:00 +41°C° 0 mm 8 mps 755 mmHg 26%
    18:00 +40°C° 0 mm 9 mps 755 mmHg 28%
    19:00 +38°C° 0 mm 8 mps 755 mmHg 33%
    20:00 +35°C° 0 mm 7 mps 756 mmHg 38%
    21:00 +33°C° 0 mm 7 mps 756 mmHg 43%
    22:00 +32°C° 0 mm 6 mps 756 mmHg 44%
    23:00 +32°C° 0 mm 5 mps 756 mmHg 45%

    23 July, Tuesday

    Time Temperature Precipitation Wind Pressure Humidity
    00:00 +32°C° 0 mm 4 mps 756 mmHg 46%
    01:00 +30°C° 0 mm 3 mps 756 mmHg 49%
    02:00 +29°C° 0 mm 3 mps 756 mmHg 52%
    03:00 +28°C° 0 mm 2 mps 756 mmHg 54%
    04:00 +29°C° 0 mm 2 mps 756 mmHg 53%
    05:00 +29°C° 0 mm 2 mps 757 mmHg 52%
    06:00 +29°C° 0 mm 2 mps 757 mmHg 51%
    07:00 +31°C° 0 mm 2 mps 756 mmHg 46%
    08:00 +34°C° 0 mm 2 mps 756 mmHg 41%
    09:00 +35°C° 0 mm 2 mps 756 mmHg 37%
    10:00 +37°C° 0 mm 3 mps 755 mmHg 33%
    11:00 +38°C° 0 mm 4 mps 755 mmHg 30%
    12:00 +41°C° 0 mm 4 mps 755 mmHg 27%
    13:00 +42°C° 0 mm 4 mps 754 mmHg 26%
    14:00 +42°C° 0 mm 5 mps 754 mmHg 25%
    15:00 +43°C° 0 mm 5 mps 753 mmHg 24%
    16:00 +42°C° 0 mm 5 mps 753 mmHg 26%
    17:00 +42°C° 0 mm 6 mps 753 mmHg 27%
    18:00 +41°C° 0 mm 6 mps 753 mmHg 28%
    19:00 +39°C° 0 mm 6 mps 754 mmHg 33%
    20:00 +35°C° 0 mm 6 mps 754 mmHg 37%
    21:00 +33°C° 0 mm 6 mps 755 mmHg 41%
    22:00 +32°C° 0 mm 5 mps 755 mmHg 43%
    23:00 +30°C° 0 mm 4 mps 755 mmHg 46%

    24 July, Wednesday

    Time Temperature Precipitation Wind Pressure Humidity
    00:00 +30°C° 0 mm 4 mps 755 mmHg 48%
    01:00 +29°C° 0 mm 3 mps 755 mmHg 50%
    02:00 +28°C° 0 mm 3 mps 755 mmHg 52%
    03:00 +28°C° 0 mm 2 mps 755 mmHg 54%
    04:00 +28°C° 0 mm 2 mps 755 mmHg 53%
    05:00 +29°C° 0 mm 2 mps 755 mmHg 52%
    06:00 +29°C° 0 mm 2 mps 755 mmHg 50%
    07:00 +31°C° 0 mm 2 mps 755 mmHg 45%
    08:00 +32°C° 0 mm 2 mps 755 mmHg 40%
    09:00 +35°C° 0 mm 2 mps 754 mmHg 35%
    10:00 +37°C° 0 mm 2 mps 754 mmHg 32%
    11:00 +38°C° 0 mm 3 mps 753 mmHg 29%
    12:00 +40°C° 0 mm 3 mps 753 mmHg 27%
    13:00 +40°C° 0 mm 3 mps 753 mmHg 25%
    14:00 +42°C° 0 mm 3 mps 752 mmHg 24%
    15:00 +42°C° 0 mm 2 mps 752 mmHg 23%
    16:00 +43°C° 0 mm 3 mps 752 mmHg 23%
    17:00 +43°C° 0 mm 3 mps 752 mmHg 24%
    18:00 +42°C° 0 mm 3 mps 752 mmHg 24%
    19:00 +40°C° 0 mm 4 mps 753 mmHg 29%
    20:00 +36°C° 0 mm 5 mps 753 mmHg 34%
    21:00 +33°C° 0 mm 6 mps 754 mmHg 38%
    22:00 +32°C° 0 mm 5 mps 754 mmHg 42%
    23:00 +30°C° 0 mm 4 mps 754 mmHg 45%

    25 July, Thursday

    Time Temperature Precipitation Wind Pressure Humidity
    00:00 +29°C° 0 mm 3 mps 754 mmHg 48%
    01:00 +29°C° 0 mm 2 mps 754 mmHg 50%
    02:00 +28°C° 0 mm 1 mps 754 mmHg 51%
    03:00 +28°C° 0 mm 1 mps 754 mmHg 53%
    04:00 +28°C° 0 mm 1 mps 754 mmHg 52%
    05:00 +29°C° 0 mm 2 mps 754 mmHg 52%
    06:00 +29°C° 0 mm 2 mps 754 mmHg 51%
    07:00 +31°C° 0 mm 3 mps 754 mmHg 46%
    08:00 +34°C° 0 mm 3 mps 754 mmHg 42%
    09:00 +35°C° 0 mm 3 mps 754 mmHg 38%
    10:00 +37°C° 0 mm 2 mps 754 mmHg 35%
    11:00 +39°C° 0 mm 2 mps 753 mmHg 32%
    12:00 +40°C° 0 mm 2 mps 753 mmHg 29%
    13:00 +41°C° 0 mm 2 mps 753 mmHg 27%
    14:00 +43°C° 0 mm 3 mps 752 mmHg 25%
    15:00 +44°C° 0 mm 4 mps 752 mmHg 23%
    16:00 +43°C° 0 mm 5 mps 751 mmHg 23%
    17:00 +44°C° 0 mm 6 mps 751 mmHg 23%
    18:00 +43°C° 0 mm 7 mps 751 mmHg 23%
    19:00 +40°C° 0 mm 7 mps 752 mmHg 29%
    20:00 +36°C° 0 mm 7 mps 753 mmHg 35%
    21:00 +34°C° 0 mm 6 mps 753 mmHg 40%
    22:00 +33°C° 0 mm 5 mps 753 mmHg 43%
    23:00 +31°C° 0 mm 3 mps 753 mmHg 46%
    Show more